Location: *
(57.8420°S, 159.8600°W)
Time: 13:06:13
(UTC+00:00)

Cosmos 1980 Rocket - Pass Details

Date: 18 May 2021
Orbit: 831 x 848 km, 71.0° (Epoch: 22 June)

Event Time Altitude Azimuth Distance (km) Brightness Sun altitude
Rises 06:54:17 0° 226° (SW) 3,434 6.2 -34.7°
Reaches altitude 10° 06:57:04 10° 215° (SW) 2,500 5.2 -35.0°
Enters shadow 06:59:52 23° 191° (S) 1,738 4.0 -35.4°
